Martinsburg, WV

5:23 PM EST on November 21, 2019 (GMT -0500)
Eastern W Va Regional-Shepherd

Weather History for KMRB - October, 2019

Change the Weather History Date:

Sunday, October 13, 2019

  Actual Average Record
Temperature  
Mean Temperature 50 °F 55 °F  
Max Temperature 63 °F 66 °F 90 °F (1954)
Min Temperature 37 °F 43 °F 27 °F (1957)
Degree Days  
Heating Degree Days 15 11  
Month to date heating degree days 66 113  
Since 1 July heating degree days 78 204  
Cooling Degree Days 0 0  
Month to date cooling degree days 37 8  
Year to date cooling degree days 1280 893  
Moisture  
Dew Point 40 °F    
Average Humidity 73    
Maximum Humidity 96    
Minimum Humidity 39    
Precipitation  
Precipitation 0.00 in 0.10 in 3.50 in (1990)
Month to date precipitation 1.20 1.32  
Year to date precipitation 36.10 31.13  
Sea Level Pressure  
Sea Level Pressure 30.07 in    
Wind  
Wind Speed 2 mph ()    
Max Wind Speed 10 mph    
Max Gust Speed 12 mph    
Visibility 10.0 miles    
Events      
T = Trace of Precipitation, MM = Missing Value Source: Averaged Metar Reports

Daily Weather History Graph

Daily Weather History Graph

Search for Another Location

Airport or City:

Astronomy

Oct. 13, 2019 Rise Set
Actual Time 7:19 AM EDT 6:36 PM EDT
Civil Twilight 6:52 AM EDT 7:03 PM EDT
Nautical Twilight 6:21 AM EDT 7:34 PM EDT
Astronomical Twilight 5:50 AM EDT 8:05 PM EDT
Moon 6:57 PM EDT (10/13) 6:52 AM EDT (10/13)
Length of Visible Light 12h 10m
Length of Day
11h 16m
Full, 100% of the Moon is Illuminated
Oct 13
Full
Oct 13
Full
Oct 21
Last Quarter
Oct 27
New
Nov 4
First Quarter

Hourly Weather History & Observations

Time (EDT) Temp. Windchill Dew Point Humidity Pressure Visibility Wind Dir Wind Speed Gust Speed Precip Events Conditions
12:53 AM 43.0 °F - 37.9 °F 82% 30.10 in 10.0 mi Calm Calm - N/A   Clear
1:53 AM 46.0 °F - 39.0 °F 76% 30.10 in 10.0 mi Calm Calm - N/A   Clear
2:53 AM 42.1 °F - 37.9 °F 85% 30.10 in 10.0 mi Calm Calm - N/A   Clear
3:53 AM 39.0 °F - 37.0 °F 93% 30.10 in 10.0 mi Calm Calm - N/A   Clear
4:53 AM 37.9 °F 34.4 °F 36.0 °F 93% 30.11 in 10.0 mi WSW 4.6 mph - N/A   Mostly Cloudy
5:53 AM 39.0 °F - 37.0 °F 93% 30.11 in 10.0 mi Calm Calm - N/A   Mostly Cloudy
6:53 AM 41.0 °F - 39.0 °F 93% 30.12 in 10.0 mi Calm Calm - N/A   Overcast
7:53 AM 41.0 °F 38.0 °F 39.0 °F 93% 30.14 in 10.0 mi SSW 4.6 mph - N/A   Mostly Cloudy
8:53 AM 44.1 °F 42.5 °F 41.0 °F 89% 30.13 in 10.0 mi SW 3.5 mph - N/A   Mostly Cloudy
9:53 AM 50.0 °F - 41.0 °F 71% 30.12 in 10.0 mi Calm Calm - N/A   Partly Cloudy
10:53 AM 52.0 °F - 41.0 °F 66% 30.12 in 10.0 mi ESE 3.5 mph - N/A   Mostly Cloudy
11:53 AM 55.0 °F - 41.0 °F 59% 30.10 in 10.0 mi Calm Calm - N/A   Overcast
12:53 PM 57.9 °F - 39.0 °F 49% 30.08 in 10.0 mi SSE 5.8 mph - N/A   Overcast
1:53 PM 60.1 °F - 36.0 °F 41% 30.06 in 10.0 mi SE 5.8 mph - N/A   Overcast
2:53 PM 61.0 °F - 37.9 °F 42% 30.02 in 10.0 mi Variable 5.8 mph - N/A   Overcast
3:53 PM 62.1 °F - 41.0 °F 46% 30.02 in 10.0 mi SSE 8.1 mph - N/A   Overcast
4:53 PM 63.0 °F - 41.0 °F 45% 30.00 in 10.0 mi Variable 6.9 mph - N/A   Overcast
5:53 PM 61.0 °F - 41.0 °F 48% 30.00 in 10.0 mi East 3.5 mph - N/A   Clear
6:53 PM 55.9 °F - 41.0 °F 57% 30.01 in 10.0 mi East 3.5 mph - N/A   Clear
7:53 PM 51.1 °F - 43.0 °F 74% 30.00 in 10.0 mi SE 3.5 mph - N/A   Clear
8:53 PM 48.9 °F - 43.0 °F 80% 30.01 in 10.0 mi Calm Calm - N/A   Clear
9:53 PM 48.0 °F - 43.0 °F 83% 30.01 in 10.0 mi Calm Calm - N/A   Clear
10:53 PM 45.0 °F - 42.1 °F 90% 30.01 in 10.0 mi Calm Calm - N/A   Clear
11:53 PM 43.0 °F - 41.0 °F 93% 30.00 in 10.0 mi Calm Calm - N/A   Clear